Time,TemperatureF,DewpointF,PressureIn,WindDirection,WindDirectionDegrees,WindSpeedMPH,WindSpeedGustMPH,Humidity,HourlyPrecipIn,Conditions,Clouds,dailyrainin,SoftwareType,DateUTC
2013-02-12 00:00:00,44.0,-99.9,-100.00,SW,222,2.0,-999.0,-999,-99.99,,,0.00,,2013-02-12 05:00:00,
2013-02-12 00:11:00,43.0,-99.9,-100.00,SSE,168,3.0,-999.0,-999,-99.99,,,0.00,,2013-02-12 05:11:00,
2013-02-12 00:22:00,43.0,-99.9,-100.00,SSE,168,3.0,-999.0,-999,-99.99,,,0.00,,2013-02-12 05:22:00,
2013-02-12 00:30:00,44.0,-99.9,-100.00,SW,218,2.0,-999.0,-999,-99.99,,,0.00,,2013-02-12 05:30:00,
2013-02-12 00:42:00,44.0,-99.9,-100.00,SW,222,2.0,-999.0,-999,-99.99,,,0.00,,2013-02-12 05:42:00,
2013-02-12 00:52:00,44.0,-99.9,-100.00,SW,222,2.0,-999.0,-999,-99.99,,,0.00,,2013-02-12 05:52:00,
2013-02-12 01:12:00,44.0,-99.9,-100.00,SW,218,2.0,-999.0,-999,-99.99,,,0.00,,2013-02-12 06:12:00,
2013-02-12 01:22:00,44.0,-99.9,-100.00,SW,218,2.0,-999.0,-999,-99.99,,,0.00,,2013-02-12 06:22:00,
2013-02-12 01:30:00,41.0,-99.9,-100.00,NW,321,2.0,-999.0,-999,-99.99,,,0.00,,2013-02-12 06:30:00,
2013-02-12 02:00:00,41.0,-99.9,-100.00,NNE,12,2.0,-999.0,-999,-99.99,,,0.00,,2013-02-12 07:00:00,
2013-02-12 02:12:00,41.0,-99.9,-100.00,NW,321,2.0,-999.0,-999,-99.99,,,0.00,,2013-02-12 07:12:00,
2013-02-12 02:22:00,41.0,-99.9,-100.00,NW,321,2.0,-999.0,-999,-99.99,,,0.00,,2013-02-12 07:22:00,
2013-02-12 02:30:00,40.0,-99.9,-100.00,ENE,71,1.0,-999.0,-999,-99.99,,,0.00,,2013-02-12 07:30:00,
2013-02-12 02:42:00,41.0,-99.9,-100.00,NNE,12,2.0,-999.0,-999,-99.99,,,0.00,,2013-02-12 07:42:00,
2013-02-12 02:52:00,41.0,-99.9,-100.00,NNE,12,2.0,-999.0,-999,-99.99,,,0.00,,2013-02-12 07:52:00,
2013-02-12 03:00:00,40.0,-99.9,-100.00,SSE,167,2.0,-999.0,-999,-99.99,,,0.00,,2013-02-12 08:00:00,
2013-02-12 03:11:00,40.0,-99.9,-100.00,ENE,71,1.0,-999.0,-999,-99.99,,,0.00,,2013-02-12 08:11:00,
2013-02-12 03:22:00,40.0,-99.9,-100.00,ENE,71,1.0,-999.0,-999,-99.99,,,0.00,,2013-02-12 08:22:00,
2013-02-12 03:30:00,39.0,-99.9,-100.00,South,191,2.0,-999.0,-999,-99.99,,,0.00,,2013-02-12 08:30:00,
2013-02-12 03:42:00,40.0,-99.9,-100.00,SSE,167,2.0,-999.0,-999,-99.99,,,0.00,,2013-02-12 08:42:00,
2013-02-12 03:52:00,40.0,-99.9,-100.00,SSE,167,2.0,-999.0,-999,-99.99,,,0.00,,2013-02-12 08:52:00,
2013-02-12 04:12:00,39.0,-99.9,-100.00,South,191,2.0,-999.0,-999,-99.99,,,0.00,,2013-02-12 09:12:00,
2013-02-12 04:22:00,39.0,-99.9,-100.00,South,191,2.0,-999.0,-999,-99.99,,,0.00,,2013-02-12 09:22:00,
2013-02-12 04:30:00,39.0,-99.9,-100.00,North,5,1.0,-999.0,-999,-99.99,,,0.00,,2013-02-12 09:30:00,
2013-02-12 04:42:00,39.0,-99.9,-100.00,NW,316,3.0,-999.0,-999,-99.99,,,0.00,,2013-02-12 09:42:00,
2013-02-12 04:52:00,39.0,-99.9,-100.00,SSE,151,3.0,-999.0,-999,-99.99,,,0.00,,2013-02-12 09:52:00,
2013-02-12 05:02:00,39.0,-99.9,-100.00,SSE,151,3.0,-999.0,-999,-99.99,,,0.00,,2013-02-12 10:02:00,
2013-02-12 05:11:00,39.0,-99.9,-100.00,North,5,1.0,-999.0,-999,-99.99,,,0.00,,2013-02-12 10:11:00,
2013-02-12 05:22:00,39.0,-99.9,-100.00,North,5,1.0,-999.0,-999,-99.99,,,0.00,,2013-02-12 10:22:00,
2013-02-12 05:52:00,40.0,-99.9,-100.00,SSE,157,1.0,-999.0,-999,-99.99,,,0.00,,2013-02-12 10:52:00,
2013-02-12 06:02:00,40.0,-99.9,-100.00,SSE,157,1.0,-999.0,-999,-99.99,,,0.00,,2013-02-12 11:02:00,
2013-02-12 06:11:00,40.0,-99.9,-100.00,SSE,167,2.0,-999.0,-999,-99.99,,,-99.99,,2013-02-12 11:11:00,
2013-02-12 06:22:00,39.0,-99.9,-100.00,West,274,1.0,-999.0,-999,-99.99,,,0.00,,2013-02-12 11:22:00,
2013-02-12 06:32:00,39.0,-99.9,-100.00,West,274,1.0,-999.0,-999,-99.99,,,0.00,,2013-02-12 11:32:00,
2013-02-12 06:42:00,39.0,-99.9,-100.00,West,274,1.0,-999.0,-999,-99.99,,,0.00,,2013-02-12 11:42:00,
2013-02-12 07:11:00,43.0,-99.9,-100.00,North,351,4.0,-999.0,-999,-99.99,,,-99.99,,2013-02-12 12:11:00,
2013-02-12 07:22:00,42.0,-99.9,-100.00,ENE,61,4.0,-999.0,-999,-99.99,,,0.00,,2013-02-12 12:22:00,
2013-02-12 07:32:00,42.0,-99.9,-100.00,ENE,61,4.0,-999.0,-999,-99.99,,,0.00,,2013-02-12 12:32:00,
2013-02-12 07:42:00,42.0,-99.9,-100.00,ENE,68,3.0,-999.0,-999,-99.99,,,0.00,,2013-02-12 12:42:00,
2013-02-12 07:53:00,41.0,-99.9,-100.00,SW,233,2.0,-999.0,-999,-99.99,,,0.00,,2013-02-12 12:53:00,
2013-02-12 08:02:00,41.0,-99.9,-100.00,SW,233,2.0,-999.0,-999,-99.99,,,0.00,,2013-02-12 13:02:00,
2013-02-12 08:11:00,41.0,-99.9,-100.00,SSW,204,2.0,-999.0,-999,-99.99,,,0.00,,2013-02-12 13:11:00,
2013-02-12 08:22:00,40.0,-99.9,-100.00,NW,323,4.0,-999.0,-999,-99.99,,,0.00,,2013-02-12 13:22:00,
2013-02-12 08:32:00,40.0,-99.9,-100.00,NW,323,4.0,-999.0,-999,-99.99,,,0.00,,2013-02-12 13:32:00,
2013-02-12 08:42:00,40.0,-99.9,-100.00,SW,218,4.0,-999.0,-999,-99.99,,,0.00,,2013-02-12 13:42:00,
2013-02-12 08:52:00,41.0,-99.9,-100.00,ESE,104,1.0,-999.0,-999,-99.99,,,0.00,,2013-02-12 13:52:00,
2013-02-12 09:01:00,41.0,-99.9,-100.00,ESE,104,1.0,-999.0,-999,-99.99,,,0.00,,2013-02-12 14:01:00,
2013-02-12 09:12:00,41.0,-99.9,-100.00,NW,326,1.0,-999.0,-999,-99.99,,,0.00,,2013-02-12 14:12:00,
2013-02-12 09:22:00,42.0,-99.9,-100.00,NNW,336,1.0,-999.0,-999,-99.99,,,0.00,,2013-02-12 14:22:00,
2013-02-12 09:32:00,42.0,-99.9,-100.00,NNW,336,1.0,-999.0,-999,-99.99,,,0.00,,2013-02-12 14:32:00,
2013-02-12 09:42:00,43.0,-99.9,-100.00,ENE,76,4.0,-999.0,-999,-99.99,,,0.00,,2013-02-12 14:42:00,
2013-02-12 09:52:00,44.0,-99.9,-100.00,NE,54,5.0,-999.0,-999,-99.99,,,0.00,,2013-02-12 14:52:00,
2013-02-12 10:02:00,44.0,-99.9,-100.00,NE,54,5.0,-999.0,-999,-99.99,,,0.00,,2013-02-12 15:02:00,
2013-02-12 10:11:00,45.0,-99.9,-100.00,NNE,25,5.0,-999.0,-999,-99.99,,,-99.99,,2013-02-12 15:11:00,
2013-02-12 10:22:00,47.0,-99.9,-100.00,NNE,22,7.0,-999.0,-999,-99.99,,,0.00,,2013-02-12 15:22:00,
2013-02-12 10:32:00,47.0,-99.9,-100.00,NNE,22,7.0,-999.0,-999,-99.99,,,0.00,,2013-02-12 15:32:00,
2013-02-12 10:42:00,47.0,-99.9,-100.00,NNE,28,6.0,-999.0,-999,-99.99,,,0.00,,2013-02-12 15:42:00,
2013-02-12 10:52:00,48.0,-99.9,-100.00,NNE,28,5.0,-999.0,-999,-99.99,,,0.00,,2013-02-12 15:52:00,
2013-02-12 11:02:00,48.0,-99.9,-100.00,NNE,28,5.0,-999.0,-999,-99.99,,,0.00,,2013-02-12 16:02:00,
2013-02-12 11:11:00,48.0,-99.9,-100.00,NE,50,5.0,-999.0,-999,-99.99,,,-99.99,,2013-02-12 16:11:00,
2013-02-12 11:22:00,49.0,-99.9,-100.00,NE,42,7.0,-999.0,-999,-99.99,,,0.00,,2013-02-12 16:22:00,
2013-02-12 11:32:00,49.0,-99.9,-100.00,NE,42,7.0,-999.0,-999,-99.99,,,0.00,,2013-02-12 16:32:00,
2013-02-12 11:42:00,50.0,-99.9,-100.00,NNE,21,8.0,-999.0,-999,-99.99,,,0.00,,2013-02-12 16:42:00,
2013-02-12 11:52:00,50.0,-99.9,-100.00,NNE,27,6.0,-999.0,-999,-99.99,,,0.00,,2013-02-12 16:52:00,
2013-02-12 12:01:00,50.0,-99.9,-100.00,NNE,27,6.0,-999.0,-999,-99.99,,,0.00,,2013-02-12 17:01:00,
2013-02-12 12:12:00,50.0,-99.9,-100.00,NNE,20,5.0,-999.0,-999,-99.99,,,-99.99,,2013-02-12 17:12:00,
2013-02-12 12:22:00,51.0,-99.9,-100.00,NE,36,5.0,-999.0,-999,-99.99,,,0.00,,2013-02-12 17:22:00,
2013-02-12 12:32:00,51.0,-99.9,-100.00,NE,36,5.0,-999.0,-999,-99.99,,,0.00,,2013-02-12 17:32:00,
2013-02-12 12:42:00,51.0,-99.9,-100.00,NNW,336,5.0,-999.0,-999,-99.99,,,0.00,,2013-02-12 17:42:00,
2013-02-12 12:52:00,51.0,-99.9,-100.00,NW,315,3.0,-999.0,-999,-99.99,,,0.00,,2013-02-12 17:52:00,
2013-02-12 13:02:00,51.0,-99.9,-100.00,NW,315,3.0,-999.0,-999,-99.99,,,0.00,,2013-02-12 18:02:00,
2013-02-12 13:12:00,51.0,-99.9,-100.00,North,349,5.0,-999.0,-999,-99.99,,,-99.99,,2013-02-12 18:12:00,
2013-02-12 13:23:00,51.0,-99.9,-100.00,North,1,5.0,-999.0,-999,-99.99,,,0.00,,2013-02-12 18:23:00,
2013-02-12 13:32:00,51.0,-99.9,-100.00,North,1,5.0,-999.0,-999,-99.99,,,0.00,,2013-02-12 18:32:00,
2013-02-12 13:42:00,51.0,-99.9,-100.00,North,1,5.0,-999.0,-999,-99.99,,,0.00,,2013-02-12 18:42:00,
2013-02-12 13:52:00,51.0,-99.9,-100.00,NNW,333,4.0,-999.0,-999,-99.99,,,0.00,,2013-02-12 18:52:00,
2013-02-12 14:02:00,51.0,-99.9,-100.00,NNW,333,4.0,-999.0,-999,-99.99,,,0.00,,2013-02-12 19:02:00,
2013-02-12 14:11:00,51.0,-99.9,-100.00,NNW,342,4.0,-999.0,-999,-99.99,,,-99.99,,2013-02-12 19:11:00,
2013-02-12 14:22:00,51.0,-99.9,-100.00,NNE,28,6.0,-999.0,-999,-99.99,,,0.00,,2013-02-12 19:22:00,
2013-02-12 14:32:00,51.0,-99.9,-100.00,NNE,28,6.0,-999.0,-999,-99.99,,,0.00,,2013-02-12 19:32:00,
2013-02-12 14:42:00,51.0,-99.9,-100.00,NNE,32,5.0,-999.0,-999,-99.99,,,0.00,,2013-02-12 19:42:00,
2013-02-12 14:52:00,51.0,-99.9,-100.00,NNW,331,3.0,-999.0,-999,-99.99,,,0.00,,2013-02-12 19:52:00,
2013-02-12 15:02:00,51.0,-99.9,-100.00,NNW,331,3.0,-999.0,-999,-99.99,,,0.00,,2013-02-12 20:02:00,
2013-02-12 15:11:00,51.0,-99.9,-100.00,NNW,335,3.0,-999.0,-999,-99.99,,,0.00,,2013-02-12 20:11:00,
2013-02-12 15:22:00,51.0,-99.9,-100.00,North,1,4.0,-999.0,-999,-99.99,,,0.00,,2013-02-12 20:22:00,
2013-02-12 15:32:00,51.0,-99.9,-100.00,North,1,4.0,-999.0,-999,-99.99,,,0.00,,2013-02-12 20:32:00,
2013-02-12 15:42:00,51.0,-99.9,-100.00,North,1,4.0,-999.0,-999,-99.99,,,0.00,,2013-02-12 20:42:00,
2013-02-12 15:52:00,51.0,-99.9,-100.00,North,352,5.0,-999.0,-999,-99.99,,,0.00,,2013-02-12 20:52:00,
2013-02-12 16:02:00,51.0,-99.9,-100.00,North,352,5.0,-999.0,-999,-99.99,,,0.00,,2013-02-12 21:02:00,
2013-02-12 16:11:00,51.0,-99.9,-100.00,NNE,17,3.0,-999.0,-999,-99.99,,,-99.99,,2013-02-12 21:11:00,
2013-02-12 16:22:00,52.0,-99.9,-100.00,NE,51,2.0,-999.0,-999,-99.99,,,0.00,,2013-02-12 21:22:00,
2013-02-12 16:32:00,52.0,-99.9,-100.00,NE,51,2.0,-999.0,-999,-99.99,,,0.00,,2013-02-12 21:32:00,
2013-02-12 16:42:00,52.0,-99.9,-100.00,ENE,69,2.0,-999.0,-999,-99.99,,,0.00,,2013-02-12 21:42:00,
2013-02-12 16:52:00,51.0,-99.9,-100.00,NE,56,2.0,-999.0,-999,-99.99,,,0.00,,2013-02-12 21:52:00,
2013-02-12 17:02:00,51.0,-99.9,-100.00,NE,56,2.0,-999.0,-999,-99.99,,,0.00,,2013-02-12 22:02:00,
2013-02-12 17:12:00,52.0,-99.9,-100.00,NE,47,3.0,-999.0,-999,-99.99,,,-99.99,,2013-02-12 22:12:00,
2013-02-12 17:22:00,51.0,-99.9,-100.00,ENE,64,2.0,-999.0,-999,-99.99,,,0.00,,2013-02-12 22:22:00,
2013-02-12 17:32:00,51.0,-99.9,-100.00,ENE,64,2.0,-999.0,-999,-99.99,,,0.00,,2013-02-12 22:32:00,
2013-02-12 17:42:00,51.0,-99.9,-100.00,NE,35,2.0,-999.0,-999,-99.99,,,0.00,,2013-02-12 22:42:00,
2013-02-12 17:52:00,51.0,-99.9,-100.00,NW,321,1.0,-999.0,-999,-99.99,,,0.00,,2013-02-12 22:52:00,
2013-02-12 18:02:00,51.0,-99.9,-100.00,NW,321,1.0,-999.0,-999,-99.99,,,0.00,,2013-02-12 23:02:00,
2013-02-12 18:12:00,50.0,-99.9,-100.00,NNW,335,2.0,-999.0,-999,-99.99,,,0.00,,2013-02-12 23:12:00,
2013-02-12 18:22:00,50.0,-99.9,-100.00,NNE,22,1.0,-999.0,-999,-99.99,,,-99.99,,2013-02-12 23:22:00,
2013-02-12 18:32:00,50.0,-99.9,-100.00,NNE,22,1.0,-999.0,-999,-99.99,,,-99.99,,2013-02-12 23:32:00,
2013-02-12 18:42:00,50.0,-99.9,-100.00,NW,306,3.0,-999.0,-999,-99.99,,,0.00,,2013-02-12 23:42:00,
2013-02-12 18:52:00,50.0,-99.9,-100.00,WSW,257,1.0,-999.0,-999,-99.99,,,-99.99,,2013-02-12 23:52:00,
2013-02-12 19:02:00,50.0,-99.9,-100.00,WSW,257,1.0,-999.0,-999,-99.99,,,-99.99,,2013-02-13 00:02:00,
2013-02-12 19:11:00,50.0,-99.9,-100.00,SSE,157,3.0,-999.0,-999,-99.99,,,0.00,,2013-02-13 00:11:00,
2013-02-12 19:22:00,49.0,-99.9,-100.00,West,275,3.0,-999.0,-999,-99.99,,,-99.99,,2013-02-13 00:22:00,
2013-02-12 19:32:00,49.0,-99.9,-100.00,West,275,3.0,-999.0,-999,-99.99,,,-99.99,,2013-02-13 00:32:00,
2013-02-12 19:42:00,49.0,-99.9,-100.00,NNW,329,2.0,-999.0,-999,-99.99,,,0.00,,2013-02-13 00:42:00,
2013-02-12 19:52:00,48.0,-99.9,-100.00,SSE,159,2.0,-999.0,-999,-99.99,,,-99.99,,2013-02-13 00:52:00,
2013-02-12 20:01:00,48.0,-99.9,-100.00,SSE,159,2.0,-999.0,-999,-99.99,,,-99.99,,2013-02-13 01:01:00,
2013-02-12 20:11:00,48.0,-99.9,-100.00,NE,48,1.0,-999.0,-999,-99.99,,,0.00,,2013-02-13 01:11:00,
2013-02-12 20:22:00,48.0,-99.9,-100.00,ENE,67,3.0,-999.0,-999,-99.99,,,-99.99,,2013-02-13 01:22:00,
2013-02-12 20:32:00,48.0,-99.9,-100.00,ENE,67,3.0,-999.0,-999,-99.99,,,-99.99,,2013-02-13 01:32:00,
2013-02-12 20:42:00,48.0,-99.9,-100.00,NNW,331,3.0,-999.0,-999,-99.99,,,0.00,,2013-02-13 01:42:00,
2013-02-12 20:52:00,48.0,-99.9,-100.00,NNE,31,3.0,-999.0,-999,-99.99,,,-99.99,,2013-02-13 01:52:00,
2013-02-12 21:01:00,48.0,-99.9,-100.00,NNE,31,3.0,-999.0,-999,-99.99,,,-99.99,,2013-02-13 02:01:00,
2013-02-12 21:11:00,46.0,-99.9,-100.00,NE,39,5.0,-999.0,-999,-99.99,,,0.00,,2013-02-13 02:11:00,
2013-02-12 21:22:00,46.0,-99.9,-100.00,NE,43,4.0,-999.0,-999,-99.99,,,-99.99,,2013-02-13 02:22:00,
2013-02-12 21:32:00,46.0,-99.9,-100.00,NE,43,4.0,-999.0,-999,-99.99,,,-99.99,,2013-02-13 02:32:00,
2013-02-12 21:42:00,46.0,-99.9,-100.00,ENE,62,4.0,-999.0,-999,-99.99,,,0.00,,2013-02-13 02:42:00,
2013-02-12 21:52:00,45.0,-99.9,-100.00,ENE,73,4.0,-999.0,-999,-99.99,,,0.00,,2013-02-13 02:52:00,
2013-02-12 22:02:00,45.0,-99.9,-100.00,ENE,73,4.0,-999.0,-999,-99.99,,,0.00,,2013-02-13 03:02:00,
2013-02-12 22:12:00,45.0,-99.9,-100.00,East,80,4.0,-999.0,-999,-99.99,,,0.00,,2013-02-13 03:12:00,
2013-02-12 22:22:00,44.0,-99.9,-100.00,ENE,76,3.0,-999.0,-999,-99.99,,,-99.99,,2013-02-13 03:22:00,
2013-02-12 22:32:00,44.0,-99.9,-100.00,ENE,76,3.0,-999.0,-999,-99.99,,,-99.99,,2013-02-13 03:32:00,
2013-02-12 22:42:00,45.0,-99.9,-100.00,ENE,70,2.0,-999.0,-999,-99.99,,,0.00,,2013-02-13 03:42:00,
2013-02-12 22:52:00,44.0,-99.9,-100.00,East,82,4.0,-999.0,-999,-99.99,,,-99.99,,2013-02-13 03:52:00,
2013-02-12 23:02:00,44.0,-99.9,-100.00,East,82,4.0,-999.0,-999,-99.99,,,-99.99,,2013-02-13 04:02:00,
2013-02-12 23:11:00,45.0,-99.9,-100.00,NE,36,3.0,-999.0,-999,-99.99,,,0.00,,2013-02-13 04:11:00,
2013-02-12 23:22:00,45.0,-99.9,-100.00,ENE,69,2.0,-999.0,-999,-99.99,,,-99.99,,2013-02-13 04:22:00,
2013-02-12 23:32:00,45.0,-99.9,-100.00,ENE,69,2.0,-999.0,-999,-99.99,,,-99.99,,2013-02-13 04:32:00,
2013-02-12 23:42:00,44.0,-99.9,-100.00,SW,223,1.0,-999.0,-999,-99.99,,,0.00,,2013-02-13 04:42:00,
2013-02-12 23:52:00,44.0,-99.9,-100.00,WSW,255,2.0,-999.0,-999,-99.99,,,-99.99,,2013-02-13 04:52:00,